Location: Marcé
(47.5801°N, 0.3280°W)
Time: 22:56:41
(UTC+01:00)

Transit 2A - Pass Details

Date: 08 December 2021
Orbit: 591 x 967 km, 66.7° (Epoch: 16 January)

Event Time Altitude Azimuth Distance (km) Brightness Sun altitude
Rises 06:01:27 0° 322° (NW) 3,631 - -25.1°
Reaches altitude 10° 06:04:55 10° 341° (NNW) 2,708 - -24.5°
Exits shadow 06:05:49 13° 348° (NNW) 2,520 8.5 -24.4°
Maximum altitude 06:09:13 18° 23° (NNE) 2,166 8.4 -23.8°
Drops below altitude 10° 06:13:29 10° 66° (ENE) 2,695 9.6 -23.1°
Sets 06:16:55 0° 84° (E) 3,608 10.8 -22.5°
